Location: Caramacate
(10.0289°N, 66.7587°W)
Time: 19:48:41
(UTC+00:00)

CZ-4 R/B - Pass Details

Date: 05 August 2024
Orbit: 512 x 566 km, 97.6° (Epoch: 07 September)

Event Time Altitude Azimuth Distance (km) Brightness Sun altitude
Exits shadow 23:45:10 23° 99° (E) 1,189 2.4 -14.0°
Maximum altitude 23:46:02 25° 77° (ENE) 1,122 2.4 -14.2°
Drops below altitude 10° 23:49:14 10° 21° (NNE) 1,792 3.9 -15.0°
Sets 23:51:35 0° 8° (N) 2,671 5.0 -15.5°
